Temperature
18 18 18 17 17 17 17 17 17 16 16 16 16 16 16 16 15 15 15 15 15 15 15 15 15 15 14 14 14 14 14 13 13 13 13 13 13 13
18 18 18 17 17 17 17 17 16 16 16 16 16 16 16 16 15 15 15 15 15 15 15 15 15 14 14 14 14 14 13 13 13 13 13 13 13 13
18 18 18 17 17 17 17 17 16 16 16 16 16 16 16 15 15 15 15 15 15 15 14 14 14 14 14 14 14 14 13 13 13 13 13 13 13 12
17 17 17 17 17 17 17 17 16 16 16 16 16 16 15 15 15 15 15 15 15 15 14 14 14 14 14 14 14 14 13 13 13 13 13 13 12 12
17 17 17 17 17 17 17 17 16 16 16 16 16 16 15 15 15 15 15 15 15 15 14 14 14 14 14 14 14 13 13 13 13 13 13 12 12 12
17 17 17 17 17 17 17 17 16 16 16 16 16 16 15 15 15 15 15 15 15 14 14 14 14 14 14 14 13 13 13 13 13 13 13 12 12 12
17 17 17 17 17 16 16 16 16 16 16 16 16 15 15 15 15 15 15 15 15 14 14 14 14 14 14 13 13 13 13 13 13 13 12 12 12 12
17 17 17 17 17 16 16 16 16 16 16 16 16 15 15 15 15 15 14 14 14 14 14 14 14 14 13 13 13 13 13 13 13 13 12 12 12 12
17 17 17 17 16 16 16 16 16 16 16 16 15 15 15 15 15 14 14 14 14 14 14 14 14 14 13 13 13 13 13 13 13 13 12 12 12 12
17 16 16 16 16 16 16 16 16 16 16 16 15 15 15 15 14 14 14 14 14 14 13 13 14 13 13 13 13 13 13 13 13 12 12 12 12 11
16 16 16 16 16 16 16 16 16 16 16 15 15 15 15 15 14 14 14 14 14 14 13 13 13 13 13 13 13 13 13 13 13 12 12 12 12 11
16 16 16 16 16 16 15 15 15 15 15 15 15 15 15 14 14 14 14 13 13 13 13 13 13 13 12 13 13 13 13 13 12 12 12 12 12 11
16 16 16 16 16 15 15 15 15 15 15 15 15 14 14 14 14 14 14 13 13 13 13 13 13 12 12 12 12 12 12 12 12 12 12 12 12 11
16 16 16 16 15 15 15 15 15 14 14 14 14 14 14 14 14 14 13 13 13 13 13 12 12 12 12 12 12 12 12 12 12 12 12 11 11 11
16 16 15 15 15 15 15 15 14 14 14 14 14 14 14 13 13 13 13 13 13 13 13 12 12 12 12 12 12 12 12 12 11 11 11 11 11 11
15 15 15 15 15 15 15 14 14 14 14 13 13 13 13 13 13 13 13 12 12 13 12 12 12 12 12 12 12 11 11 11 11 11 11 11 11 11
15 15 15 15 14 14 14 14 14 14 13 13 13 13 13 13 12 12 12 12 12 12 12 12 12 11 11 11 11 11 11 11 11 11 11 11 11 10
15 14 14 14 14 14 14 14 14 13 13 13 13 13 13 12 12 12 12 12 11 11 11 11 11 11 11 11 11 11 11 11 11 11 10 10 10 10
14 14 14 14 14 14 14 14 13 13 13 13 13 13 12 12 12 11 11 11 11 11 11 11 11 11 10 10 11 11 10 10 10 10 10 10 10 10
14 14 14 14 14 13 13 13 13 13 12 12 12 12 12 12 11 11 11 11 11 11 11 11 10 10 10 10 10 10 10 10 10 10 10 10 10 10
14 14 14 13 13 13 13 13 13 12 12 12 12 12 12 11 11 11 11 11 10 10 10 10 10 10 10 10 10 10 10 10 10 10 10 9 9 9
14 13 13 13 13 13 12 12 12 12 12 11 11 11 11 11 11 11 10 10 10 10 10 10 10 10 10 9 9 9 10 10 10 9 9 9 9 9
14 13 13 13 13 12 12 12 12 11 11 11 11 11 11 11 11 10 10 10 10 10 10 9 9 9 9 9 9 9 9 9 9 9 9 9 9 9
Wind_Speed
1 1 1 1 1 1 2 3 4 2 3 3 2 2 3 5 6 7 6 6 6 6 6 6 6 5 5 5 4 5 5 5 5 5 5 6 6 6
1 1 1 1 1 1 1 2 2 3 3 3 3 3 3 3 6 6 7 7 8 8 8 8 7 7 6 6 5 5 5 6 5 5 5 6 6 6
1 2 2 2 1 1 1 1 1 2 3 3 2 1 2 2 2 5 6 6 7 9 9 9 9 8 8 8 7 7 7 6 6 6 6 6 6 7
3 2 3 2 2 1 1 1 2 2 3 2 2 1 2 3 3 3 4 6 7 9 11 11 11 11 11 10 10 9 8 8 8 7 7 7 7 8
3 3 3 2 2 2 2 2 2 2 2 2 3 2 2 2 1 2 3 3 6 8 10 12 13 13 13 12 12 11 11 10 10 9 9 8 8 8
3 3 3 4 4 3 3 3 2 1 1 2 2 2 3 2 1 2 3 4 4 5 6 9 11 13 14 14 13 13 13 12 12 11 10 10 9 9
3 3 4 4 5 4 3 3 3 2 2 2 3 2 3 2 3 3 4 4 4 4 3 5 6 6 8 12 13 14 14 14 13 13 12 12 11 11
4 3 3 3 4 5 6 6 5 4 4 4 4 4 5 5 4 4 3 2 4 3 4 5 4 5 6 8 11 14 14 14 14 14 14 13 13 12
4 4 4 4 4 3 5 5 6 7 8 7 6 7 6 6 5 5 5 5 6 4 3 5 3 5 6 8 11 12 13 14 14 14 14 14 14 13
5 5 5 5 4 4 3 4 5 6 7 7 8 9 8 7 7 7 7 6 5 3 4 4 3 5 6 6 10 12 13 13 14 15 15 15 15 14
5 5 5 6 7 6 4 5 6 6 7 8 9 10 10 9 7 3 3 2 4 4 4 3 3 3 4 5 7 11 13 14 14 15 15 15 15 14
4 4 6 7 8 6 5 5 7 8 6 5 5 7 6 7 8 7 6 5 4 4 4 4 3 2 3 3 4 5 8 11 13 14 14 14 14 10
4 5 5 7 8 8 7 7 10 8 5 5 5 5 4 4 5 6 6 6 6 6 5 4 3 3 3 3 3 4 5 5 7 8 11 13 13 12
6 6 6 8 8 9 8 9 10 6 4 4 4 5 5 6 6 6 7 7 7 8 7 5 4 4 4 4 4 3 4 5 5 5 6 8 11 14
6 9 9 9 8 8 9 9 7 5 4 5 6 7 6 6 4 3 4 4 5 6 6 6 5 4 4 5 4 3 3 3 4 5 5 6 6 6
6 7 8 8 6 7 6 5 5 5 6 6 6 6 4 3 4 3 3 3 3 5 4 5 5 5 5 5 5 4 4 3 4 5 5 5 6 7
4 2 2 2 3 4 4 4 4 4 5 5 5 5 4 4 4 3 3 3 3 4 4 3 3 5 5 5 4 5 4 4 4 4 4 5 5 7
3 3 4 4 5 5 5 4 4 5 6 5 4 4 4 4 4 3 3 3 4 5 4 3 1 1 2 3 6 5 5 5 4 4 4 5 6 5
4 4 5 5 6 6 5 5 5 5 4 4 4 4 4 4 3 4 4 4 4 5 4 3 3 2 3 5 5 5 5 4 3 4 4 5 6 6
5 5 6 6 5 5 5 5 5 4 3 4 4 4 4 4 4 4 4 5 5 5 4 4 4 5 6 6 4 4 7 6 5 5 5 4 4 4
5 5 5 5 5 4 5 4 4 4 4 4 4 4 4 4 4 4 5 5 5 4 5 6 7 7 4 2 2 4 4 7 8 5 4 4 3 3
4 5 5 5 4 4 3 3 3 3 3 3 3 3 3 4 4 5 5 5 4 5 6 5 4 3 3 4 5 5 5 4 5 7 7 7 5 5
4 5 4 4 4 3 3 3 3 3 3 3 3 4 3 4 4 4 5 4 4 4 4 4 3 3 4 5 5 5 5 4 2 2 3 5 9 9
Wind_Direction
226 223 221 251 201 200 175 162 162 213 269 258 251 242 202 192 199 191 196 204 205 206 206 207 209 207 212 217 223 226 223 217 221 227 228 225 220 218
218 217 237 247 243 218 197 186 173 182 232 247 234 229 201 199 205 200 209 214 214 214 214 218 220 219 219 216 218 222 220 219 219 222 225 220 213 208
256 220 235 232 229 241 202 195 198 174 216 269 241 224 185 204 199 209 217 218 224 223 221 225 226 226 222 220 221 223 222 219 220 225 226 221 217 213
245 233 247 237 229 235 208 215 223 199 187 233 254 226 214 216 214 213 219 227 226 227 225 229 230 228 226 226 225 222 221 223 224 225 226 224 223 221
238 231 240 219 239 235 221 227 233 216 187 196 241 235 236 225 218 242 236 242 236 233 230 232 232 231 232 231 228 223 223 224 224 224 225 227 228 226
247 235 229 217 222 228 227 228 220 203 197 202 241 251 244 237 196 228 254 253 247 234 232 233 233 234 235 235 232 229 227 225 225 225 224 225 226 226
255 243 234 222 219 222 225 221 208 207 208 214 236 251 249 229 228 221 232 253 255 235 233 234 227 232 238 240 237 235 231 229 228 226 224 224 223 222
245 254 244 236 242 237 234 223 205 203 212 216 230 237 245 236 232 225 223 233 262 238 210 242 217 233 238 237 236 232 230 231 230 227 223 222 221 220
233 241 253 256 242 247 251 242 235 230 215 208 224 234 235 229 219 227 224 224 239 230 198 244 226 237 242 241 231 226 228 231 231 228 225 222 220 220
232 228 235 252 251 231 243 258 259 255 240 226 229 236 235 228 214 216 224 237 254 242 190 229 234 235 240 238 233 227 230 232 232 229 225 223 222 221
245 238 233 247 251 228 229 252 269 276 265 243 240 244 244 238 219 206 221 229 259 251 210 210 233 237 237 240 235 229 230 233 233 231 228 225 223 220
264 256 242 243 249 230 226 237 255 265 273 277 266 267 262 256 233 214 212 218 239 252 223 203 221 211 259 248 236 237 234 237 235 232 229 226 220 212
254 260 260 252 249 241 232 236 246 252 253 252 261 268 269 264 248 232 218 212 219 239 224 193 212 207 216 250 251 234 228 232 231 231 231 225 216 205
246 255 257 255 252 251 245 246 250 250 254 254 257 261 259 258 254 241 231 226 226 234 230 200 209 211 213 237 256 245 234 231 223 225 226 226 220 218
248 255 259 256 251 252 252 250 245 238 237 249 254 257 253 252 252 251 246 239 245 244 240 222 216 220 213 230 239 238 246 242 222 223 222 219 216 211
258 270 268 263 259 259 263 254 236 233 233 242 252 258 261 256 250 242 242 244 261 273 262 242 225 216 230 234 228 238 228 225 226 227 223 225 221 214
243 267 272 282 276 282 272 255 245 241 243 248 252 260 259 255 253 244 234 229 238 254 268 273 253 230 223 220 227 232 232 239 233 216 214 230 231 224
192 232 250 254 257 260 261 254 245 244 245 245 243 244 248 248 252 251 237 230 239 247 252 251 253 301 298 264 228 229 230 233 236 219 207 222 242 237
200 235 244 249 255 257 254 246 247 246 242 242 241 241 244 244 246 246 242 240 245 248 249 238 215 207 246 267 265 222 222 233 226 220 220 221 236 237
224 235 243 247 250 254 254 247 248 251 242 239 240 238 234 234 238 243 242 240 241 245 251 244 226 220 226 241 249 257 230 221 219 224 230 231 245 249
233 237 240 243 245 250 256 253 246 247 248 239 236 239 237 235 241 244 246 246 238 239 243 249 247 236 229 217 250 262 257 229 214 213 216 223 238 234
235 235 236 237 240 245 256 258 255 251 248 248 249 246 241 235 240 246 245 245 244 240 244 254 257 230 208 223 242 253 261 264 239 229 216 208 202 211
235 233 233 236 237 237 235 242 249 257 254 252 254 250 245 245 246 248 251 244 245 255 257 259 262 241 229 230 238 249 253 252 244 238 255 254 236 239
Height
1542 1542 1541 1541 1540 1540 1539 1539 1539 1537 1536 1536 1535 1535 1534 1534 1533 1532 1531 1530 1529 1528 1527 1527 1526 1525 1525 1524 1524 1524 1524 1523 1523 1523 1523 1523 1523 1523
1540 1540 1540 1539 1539 1539 1538 1538 1537 1536 1535 1534 1534 1533 1532 1532 1531 1530 1529 1528 1527 1526 1526 1525 1524 1524 1523 1523 1522 1522 1522 1521 1521 1521 1521 1521 1520 1521
1539 1539 1538 1538 1537 1537 1537 1536 1535 1535 1533 1532 1532 1531 1531 1530 1529 1528 1527 1526 1525 1524 1524 1523 1523 1522 1521 1521 1520 1520 1519 1519 1519 1519 1519 1519 1519 1518
1537 1537 1536 1536 1536 1535 1535 1534 1533 1532 1532 1530 1530 1529 1528 1528 1527 1526 1525 1524 1523 1522 1522 1521 1520 1520 1519 1518 1518 1517 1517 1517 1517 1517 1517 1517 1517 1517
1535 1535 1535 1534 1533 1533 1532 1531 1531 1530 1529 1528 1527 1527 1526 1525 1524 1523 1522 1521 1520 1520 1519 1518 1518 1517 1516 1515 1515 1515 1515 1514 1514 1514 1514 1514 1514 1514
1533 1533 1532 1532 1531 1530 1530 1529 1528 1527 1527 1526 1525 1524 1523 1522 1521 1520 1519 1518 1517 1517 1516 1515 1515 1514 1513 1512 1512 1512 1511 1511 1511 1511 1511 1511 1511 1511
1530 1530 1530 1529 1528 1528 1527 1526 1525 1524 1524 1523 1522 1521 1520 1519 1517 1517 1516 1515 1514 1513 1512 1512 1511 1510 1509 1509 1508 1508 1508 1508 1507 1507 1507 1507 1508 1508
1527 1527 1527 1526 1525 1525 1524 1523 1523 1521 1520 1519 1518 1517 1516 1515 1514 1513 1512 1511 1510 1510 1508 1507 1507 1506 1505 1505 1504 1504 1504 1504 1503 1503 1503 1503 1503 1504
1524 1524 1523 1522 1522 1521 1520 1519 1518 1517 1517 1516 1514 1513 1512 1511 1510 1509 1508 1507 1506 1506 1504 1502 1502 1501 1501 1500 1500 1500 1500 1499 1499 1499 1499 1499 1499 1499
1521 1520 1519 1519 1518 1517 1516 1514 1513 1513 1512 1511 1510 1509 1508 1507 1506 1506 1504 1503 1502 1502 1500 1498 1497 1497 1496 1496 1496 1496 1495 1495 1495 1494 1494 1494 1494 1495
1517 1516 1515 1514 1514 1513 1512 1510 1508 1507 1507 1506 1505 1504 1504 1503 1502 1501 1500 1498 1496 1496 1496 1494 1492 1492 1491 1491 1491 1491 1490 1490 1490 1490 1489 1489 1490 1490
1512 1512 1511 1510 1509 1508 1507 1505 1503 1502 1502 1501 1500 1499 1498 1497 1497 1496 1494 1493 1492 1490 1490 1490 1488 1488 1486 1485 1486 1486 1485 1485 1485 1484 1484 1485 1485 1485
1508 1507 1506 1505 1504 1503 1502 1501 1499 1498 1497 1495 1494 1494 1493 1492 1491 1491 1489 1488 1487 1485 1486 1485 1484 1483 1482 1480 1480 1480 1480 1479 1479 1479 1479 1479 1479 1480
1503 1502 1501 1500 1499 1498 1496 1495 1494 1492 1491 1489 1488 1487 1487 1486 1485 1485 1484 1483 1482 1481 1480 1480 1479 1478 1477 1476 1475 1474 1474 1474 1474 1473 1473 1473 1473 1474
1498 1498 1496 1495 1494 1492 1490 1489 1488 1486 1485 1483 1482 1481 1481 1480 1480 1479 1478 1478 1477 1476 1475 1474 1474 1474 1473 1471 1470 1469 1469 1468 1468 1468 1468 1467 1467 1468
1493 1492 1491 1489 1488 1486 1484 1483 1481 1480 1479 1477 1476 1476 1476 1475 1474 1474 1473 1472 1471 1470 1470 1469 1469 1468 1467 1466 1465 1464 1463 1463 1463 1463 1462 1462 1462 1462
1488 1486 1485 1483 1482 1480 1478 1476 1475 1474 1473 1472 1471 1471 1470 1469 1469 1468 1467 1467 1466 1465 1464 1464 1463 1463 1462 1461 1460 1459 1458 1458 1458 1458 1457 1456 1456 1457
1482 1481 1479 1478 1476 1474 1472 1470 1469 1468 1467 1466 1466 1465 1464 1464 1463 1463 1462 1461 1460 1459 1459 1458 1458 1457 1456 1455 1455 1454 1453 1453 1452 1452 1452 1451 1450 1451
1477 1475 1474 1472 1471 1469 1466 1464 1463 1462 1462 1461 1460 1460 1459 1458 1458 1457 1456 1455 1455 1454 1454 1454 1453 1452 1450 1449 1448 1449 1448 1447 1447 1446 1446 1445 1445 1445
1470 1469 1468 1467 1466 1463 1461 1459 1458 1457 1456 1455 1455 1454 1453 1453 1452 1451 1451 1450 1449 1448 1448 1448 1447 1447 1446 1444 1443 1443 1443 1442 1441 1441 1440 1440 1440 1440
1464 1463 1462 1461 1460 1458 1456 1454 1453 1452 1451 1450 1449 1448 1448 1447 1446 1446 1445 1444 1443 1443 1442 1441 1441 1442 1441 1440 1439 1437 1438 1437 1437 1436 1435 1435 1434 1434
1458 1458 1457 1456 1455 1453 1451 1450 1448 1447 1446 1445 1443 1443 1442 1442 1441 1441 1440 1439 1438 1437 1436 1436 1436 1436 1435 1434 1433 1432 1432 1432 1432 1431 1431 1431 1429 1428
1453 1452 1451 1451 1449 1448 1447 1445 1444 1442 1441 1439 1439 1438 1437 1436 1436 1435 1435 1433 1432 1432 1431 1430 1430 1430 1430 1429 1429 1428 1427 1427 1426 1426 1426 1425 1425 1425